Tracking 19638 objects as of 19-Apr-2019
HD Live streaming from Space Station
objects crossing your sky now

ATLAS CENTAUR R/B

Track ATLAS CENTAUR R/B now!


NORAD ID: 7545
Int'l Code: 1974-093B
Perigee: 560.8 km
Apogee: 36,468.1 km
Inclination: 25.5 °
Period: 651.1 minutes
Semi major axis: 24885 km
RCS: 16.7818 m2 (large)
Launch date: November 21, 1974
Source: United States (US)
Launch site: AIR FORCE EASTERN TEST RANGE (AFETR)

Note: This is a ROCKET BODY
aabbcc
Your satellite tracking list
Your tracking list is empty




NASA's NSSDC Master Catalog

Two Line Element Set (TLE):
1  7545U 74093B   19106.68124428 +.00000099 +00000-0 +50000-3 0  9992
2  7545 025.5377 209.3837 7214523 286.7903 010.7189 02.21148647228927
Source of the keplerian elements: AFSPC